Home > Weather > Springfield > Past weeks

Flag for USA Past Weather in Springfield, Missouri, USA — Yesterday and Last 2 Weeks

Now
76 °F

Sunny.


Feels Like: 77 °F
Forecast: 71 / 87 °F
Wind: No wind

Location: Springfield Regional Airport

Current Time: Jun 26, 2016 at 9:18:59 PM

Latest Report: Jun 26, 2016 at 8:52 PM


Visibility: 10 mi

Pressure: 30.05 "Hg

Humidity: 82%

Dew Point: 70 °F

Location of SpringfieldLocation

Past Weather in Springfield — Graph

°F

Springfield Temperature Yesterday

Maximum temperature yesterday: 90 °F (at 3:52 PM)
Minimum temperature yesterday: 75 °F (at 4:52 AM)
Average temperature yesterday: 82 °F

High & Low Weather Summary for the Past Weeks

 TemperatureHumidityPressure
High95 °F (Jun 17, 2:52 PM)93% (Jun 24, 1:52 AM)30.21 "Hg (Jun 24, 1:52 AM)
Low68 °F (Jun 13, 3:52 AM)37% (Jun 20, 5:00 PM)29.73 "Hg (Jun 14, 5:52 PM)
Average81 °F68%29.98 "Hg
* Reported Jun 11 7:52 PM — Jun 26 7:52 PM, Springfield, Weather by CustomWeather, © 2016

Note: Actual official high and low records may vary slightly from our data, if they occured in-between our weather recording intervals... More about our weather records

Advertising

Springfield Weather History for the Previous 24 Hours

Scroll right to see more
 ConditionsComfort  
Time TempWeatherWind HumidityBarometerVisibility
7:52 PM
Sun, Jun 26
77 °FThundershowers. Scattered clouds.13 mph74%30.08 "Hg10 mi
6:52 PM78 °FMostly cloudy.16 mph76%30.06 "Hg10 mi
5:52 PM89 °FBroken clouds.9 mph55%29.99 "Hg10 mi
4:52 PM91 °FSunny.8 mph50%29.99 "Hg10 mi
3:52 PM91 °FPassing clouds.9 mph54%30.00 "Hg10 mi
2:52 PM89 °FBroken clouds.6 mph57%30.02 "Hg10 mi
1:52 PM90 °FPassing clouds.10 mph54%30.04 "Hg10 mi
12:52 PM89 °FPassing clouds.10 mph57%30.06 "Hg10 mi
11:52 AM87 °FPassing clouds.10 mph61%30.07 "Hg10 mi
10:52 AM85 °FSunny.12 mph65%30.07 "Hg10 mi
9:52 AM85 °FSunny.14 mph65%30.07 "Hg10 mi
8:52 AM82 °FPassing clouds.15 mph70%30.07 "Hg10 mi
7:52 AM80 °FSunny.13 mph74%30.06 "Hg10 mi
6:52 AM77 °FClear.8 mph79%30.05 "Hg10 mi
5:52 AM73 °FClear.7 mph84%30.03 "Hg10 mi
4:52 AM73 °FPassing clouds.7 mph84%30.04 "Hg10 mi
3:52 AM74 °FClear.7 mph82%30.03 "Hg10 mi
2:52 AM75 °FClear.6 mph79%30.01 "Hg10 mi
1:52 AM76 °FClear.6 mph77%30.01 "Hg10 mi
12:52 AM76 °FClear.7 mph80%30.02 "Hg10 mi
11:52 PM
Sat, Jun 25
78 °FClear.7 mph71%30.02 "Hg10 mi
10:52 PM80 °FPassing clouds.8 mph67%30.00 "Hg10 mi
9:52 PM81 °FClear.7 mph65%29.99 "Hg10 mi
Weather by CustomWeather, © 2016

See weather overviewHow to use our weather pages